This demonstration page uses our WeatherBlox Daily Observations layout. Learn more.

39.01783, -85.05884

Hourly Observations for January 28, 2019

Temp ( °F °C ) Dew Point ( °F °C ) Humidity (%) Winds ( mph kmh ) Pressure ( in mb ) Visibility ( mi km ) Precip ( " mm )
12:52 am 00:52 Cloudy 23 -5 12 -11.1 63 63 ENE 7 11 30 1016 10 16.09344 0 0
1:52 am 01:52 Cloudy 24 -4.4 13 -10.6 62 62 ESE 8 13 29.97 1015 10 16.09344 0 0
2:52 am 02:52 Cloudy 24 -4.4 15 -9.4 68 68 SE 9 15 29.94 1014 10 16.09344 0 0
3:52 am 03:52 Cloudy 24 -4.4 16 -8.9 71 71 SE 9 15 29.91 1013 10 16.09344 0 0
4:52 am 04:52 Cloudy 26 -3.3 18 -7.8 71 71 SSE 14 22 29.88 1012 10 16.09344 0 0
5:52 am 05:52 Cloudy 27 -2.8 19 -7.2 72 72 SE 10 17 29.88 1012 10 16.09344 0 0
6:52 am 06:52 Cloudy 28 -2.2 20 -6.7 72 72 SE 14 22 29.85 1011 10 16.09344 0 0
7:52 am 07:52 Cloudy 29 -1.7 21 -6.1 72 72 SSE 13 20 29.85 1011 10 16.09344 0 0
8:52 am 08:52 Cloudy 31 -0.6 23 -5 72 72 SSE 15 24 29.83 1010 10 16.09344 0 0
9:52 am 09:52 Cloudy 35 1.7 26 -3.3 70 70 S 15 24 29.8 1009 10 16.09344 0 0
10:52 am 10:52 Cloudy 40 4.4 29 -1.7 65 65 S 17 28 29.77 1008 10 16.09344 0 0
11:52 am 11:52 Cloudy 44 6.7 29 -1.7 55 55 S 16 26 29.77 1008 10 16.09344 0 0
12:52 pm 12:52 Cloudy 45 7.2 30 -1.1 56 56 S 17 28 29.71 1006 10 16.09344 0 0
1:52 pm 13:52 Cloudy with Light Rain 46 7.8 32 0 58 58 S 17 28 29.68 1005 10 16.09344 0.001 0.001
2:52 pm 14:52 Cloudy 49 9.4 32 0 52 52 SSW 21 33 29.65 1004 10 16.09344 0.001 0.001
3:52 pm 15:52 Cloudy 50 10 32 0 50 50 SSW 17 28 29.65 1004 10 16.09344 0 0
4:52 pm 16:52 Cloudy with Light Rain 49 9.4 33 0.6 55 55 SSW 22 35 29.65 1004 10 16.09344 0.001 0.001
5:52 pm 17:52 Cloudy with Light Rain 46 7.8 36 2.2 68 68 SW 15 24 29.68 1005 9 14.484096 0.001 0.001
6:37 pm 18:37 Cloudy with Light Rain 44 6.7 37 2.8 76 76 WSW 12 19 29.68 1005 9 14.484096 0.01 0.254
6:52 pm 18:52 Cloudy with Light Rain 43 6.1 37 2.8 80 80 W 17 28 29.71 1006 8 12.874752 0.02 0.508
7:24 pm 19:24 Cloudy with Light Rain 42 5.6 37 2.8 82 82 WSW 13 20 29.74 1007 10 16.09344 0.01 0.254
7:52 pm 19:52 Cloudy with Light Rain 41 5 37 2.8 86 86 WSW 8 13 29.71 1006 7 11.265408 0.02 0.508
8:02 pm 20:02 Cloudy with Light Rain 41 5 36 2.2 82 82 WSW 10 17 29.74 1007 9 14.484096 0.001 0.001
8:52 pm 20:52 Cloudy with Light Rain 40 4.4 35 1.7 83 83 W 14 22 29.74 1007 8 12.874752 0.001 0.001
9:03 pm 21:03 Cloudy 37 2.8 32 0 82 82 WNW 30 48 29.77 1008 10 16.09344 0.001 0.001
9:39 pm 21:39 Windy with Snow Likely 32 0 29 -1.7 88 88 WNW 23 37 29.8 1009 5 8.04672 0.001 0.001
9:52 pm 21:52 Windy with Snow Likely 30 -1.1 26 -3.3 85 85 W 22 35 29.8 1009 7 11.265408 0.001 0.001
10:06 pm 22:06 Cloudy with Light Snow 29 -1.7 25 -3.9 85 85 NW 15 24 29.85 1011 2.5 4.02336 0.001 0.001
10:16 pm 22:16 Cloudy with Light Snow 28 -2.2 24 -4.4 85 85 WNW 12 19 29.85 1011 4 6.437376 0.001 0.001
10:52 pm 22:52 Windy with Snow Likely 27 -2.8 22 -5.6 81 81 WNW 21 33 29.83 1010 6 9.656064 0.01 0.254
11:41 pm 23:41 Cloudy 24 -4.4 17 -8.3 75 75 WNW 17 28 29.91 1013 7 11.265408 0.001 0.001
11:52 pm 23:52 Cloudy 23 -5 16 -8.9 74 74 WNW 15 24 29.85 1011 7 11.265408 0.001 0.001

Powered by AerisWeather